When you browse on this site, cookies collect data to enhance your experience and personalize the content and advertising you see.
Visit our Privacy Policy to learn more. By continuing to use the site, you agree to this use of cookies and data.
  • en France
  • Liste des pays
  • À 7 jours
  • Température de l'eau
  • Carte satellitaire
  • Carte météo
  • Widgets météo
  • user-avatar
    Se connecter

    Météo par heure à Hrazdan

    Ce jour, 16 Juillet, Mardi

    Heure Température Précipitation Vent Pression Humidité
    00:00 +14°C° 0 mm 1 m/s 609 mmHg 75%
    01:00 +14°C° 0 mm 1 m/s 609 mmHg 76%
    02:00 +14°C° 0 mm 1 m/s 609 mmHg 77%
    03:00 +14°C° 0 mm 1 m/s 609 mmHg 78%
    04:00 +14°C° 0 mm 1 m/s 609 mmHg 78%
    05:00 +14°C° 0 mm 1 m/s 609 mmHg 77%
    06:00 +14°C° 0 mm 1 m/s 609 mmHg 77%
    07:00 +18°C° 0 mm 1 m/s 610 mmHg 67%
    08:00 +20°C° 0 mm 1 m/s 611 mmHg 58%
    09:00 +22°C° 0 mm 1 m/s 611 mmHg 49%
    10:00 +23°C° 0 mm 2 m/s 611 mmHg 46%
    11:00 +24°C° 0 mm 2 m/s 611 mmHg 43%
    12:00 +25°C° 0 mm 2 m/s 612 mmHg 40%
    13:00 +25°C° 0.1 mm 2 m/s 612 mmHg 40%
    14:00 +25°C° 0.1 mm 2 m/s 611 mmHg 40%
    15:00 +26°C° 0.1 mm 2 m/s 611 mmHg 40%
    16:00 +25°C° 0.1 mm 2 m/s 611 mmHg 49%
    17:00 +23°C° 0.1 mm 2 m/s 610 mmHg 58%
    18:00 +21°C° 0.1 mm 3 m/s 610 mmHg 66%
    19:00 +19°C° 0 mm 2 m/s 610 mmHg 72%
    20:00 +17°C° 0 mm 2 m/s 609 mmHg 78%
    21:00 +15°C° 0 mm 2 m/s 609 mmHg 84%
    22:00 +15°C° 0 mm 2 m/s 609 mmHg 82%
    23:00 +15°C° 0 mm 2 m/s 609 mmHg 80%

    Demain, 17 Juillet, Mercredi

    Heure Température Précipitation Vent Pression Humidité
    00:00 +14°C° 0 mm 2 m/s 609 mmHg 77%
    01:00 +14°C° 0 mm 2 m/s 609 mmHg 78%
    02:00 +14°C° 0 mm 2 m/s 609 mmHg 78%
    03:00 +14°C° 0 mm 2 m/s 609 mmHg 78%
    04:00 +14°C° 0 mm 2 m/s 609 mmHg 78%
    05:00 +15°C° 0 mm 2 m/s 609 mmHg 78%
    06:00 +16°C° 0 mm 1 m/s 610 mmHg 78%
    07:00 +18°C° 0 mm 2 m/s 610 mmHg 73%
    08:00 +19°C° 0 mm 2 m/s 611 mmHg 67%
    09:00 +21°C° 0 mm 2 m/s 612 mmHg 62%
    10:00 +23°C° 0.2 mm 2 m/s 612 mmHg 59%
    11:00 +24°C° 0.2 mm 2 m/s 612 mmHg 56%
    12:00 +25°C° 0.2 mm 2 m/s 612 mmHg 53%
    13:00 +25°C° 0.3 mm 3 m/s 612 mmHg 53%
    14:00 +25°C° 0.3 mm 3 m/s 611 mmHg 52%
    15:00 +26°C° 0.3 mm 3 m/s 611 mmHg 52%
    16:00 +25°C° 0.3 mm 3 m/s 611 mmHg 57%
    17:00 +24°C° 0.3 mm 2 m/s 611 mmHg 63%
    18:00 +23°C° 0.3 mm 2 m/s 610 mmHg 68%
    19:00 +20°C° 0.1 mm 2 m/s 610 mmHg 71%
    20:00 +19°C° 0.1 mm 2 m/s 610 mmHg 76%
    21:00 +17°C° 0.1 mm 2 m/s 609 mmHg 80%
    22:00 +17°C° 0 mm 2 m/s 609 mmHg 80%
    23:00 +16°C° 0 mm 2 m/s 609 mmHg 80%

    Après-demain, 18 Juillet, Jeudi

    Heure Température Précipitation Vent Pression Humidité
    00:00 +16°C° 0 mm 2 m/s 609 mmHg 80%
    01:00 +16°C° 0 mm 2 m/s 609 mmHg 81%
    02:00 +15°C° 0 mm 2 m/s 609 mmHg 81%
    03:00 +15°C° 0 mm 2 m/s 609 mmHg 82%
    04:00 +16°C° 0 mm 1 m/s 610 mmHg 81%
    05:00 +16°C° 0 mm 1 m/s 610 mmHg 80%
    06:00 +18°C° 0 mm 1 m/s 610 mmHg 79%
    07:00 +20°C° 0 mm 1 m/s 611 mmHg 73%
    08:00 +21°C° 0 mm 2 m/s 611 mmHg 67%
    09:00 +23°C° 0 mm 2 m/s 612 mmHg 60%
    10:00 +25°C° 0 mm 2 m/s 612 mmHg 56%
    11:00 +26°C° 0 mm 2 m/s 612 mmHg 51%
    12:00 +27°C° 0 mm 2 m/s 612 mmHg 46%
    13:00 +27°C° 0.1 mm 2 m/s 612 mmHg 46%
    14:00 +27°C° 0.1 mm 2 m/s 612 mmHg 46%
    15:00 +27°C° 0.1 mm 2 m/s 612 mmHg 46%
    16:00 +26°C° 0.2 mm 2 m/s 612 mmHg 54%
    17:00 +25°C° 0.2 mm 2 m/s 611 mmHg 61%
    18:00 +24°C° 0.2 mm 2 m/s 611 mmHg 69%
    19:00 +21°C° 0.1 mm 2 m/s 611 mmHg 73%
    20:00 +19°C° 0.1 mm 2 m/s 611 mmHg 78%
    21:00 +17°C° 0.1 mm 2 m/s 611 mmHg 83%
    22:00 +17°C° 0.1 mm 2 m/s 611 mmHg 83%
    23:00 +17°C° 0.1 mm 2 m/s 611 mmHg 82%

    19 Juillet, Vendredi

    Heure Température Précipitation Vent Pression Humidité
    00:00 +16°C° 0.1 mm 2 m/s 611 mmHg 82%
    01:00 +16°C° 0 mm 2 m/s 611 mmHg 82%
    02:00 +16°C° 0 mm 2 m/s 611 mmHg 81%
    03:00 +15°C° 0 mm 2 m/s 611 mmHg 81%
    04:00 +16°C° 0 mm 2 m/s 611 mmHg 80%
    05:00 +16°C° 0 mm 2 m/s 612 mmHg 80%
    06:00 +17°C° 0 mm 2 m/s 612 mmHg 79%
    07:00 +18°C° 0 mm 2 m/s 612 mmHg 74%
    08:00 +20°C° 0 mm 2 m/s 613 mmHg 69%
    09:00 +23°C° 0 mm 2 m/s 614 mmHg 64%
    10:00 +24°C° 0 mm 2 m/s 614 mmHg 61%
    11:00 +25°C° 0 mm 2 m/s 614 mmHg 58%
    12:00 +26°C° 0 mm 3 m/s 614 mmHg 55%
    13:00 +26°C° 0.1 mm 3 m/s 614 mmHg 56%
    14:00 +26°C° 0.1 mm 3 m/s 614 mmHg 57%
    15:00 +26°C° 0.1 mm 3 m/s 614 mmHg 59%
    16:00 +25°C° 0.2 mm 3 m/s 613 mmHg 64%
    17:00 +24°C° 0.2 mm 3 m/s 613 mmHg 69%
    18:00 +22°C° 0.2 mm 3 m/s 613 mmHg 74%
    19:00 +21°C° 0 mm 3 m/s 613 mmHg 78%
    20:00 +19°C° 0 mm 3 m/s 613 mmHg 82%
    21:00 +18°C° 0 mm 3 m/s 613 mmHg 86%
    22:00 +17°C° 0 mm 3 m/s 613 mmHg 86%
    23:00 +17°C° 0 mm 3 m/s 613 mmHg 86%

    20 Juillet, Samedi

    Heure Température Précipitation Vent Pression Humidité
    00:00 +17°C° 0 mm 3 m/s 613 mmHg 86%
    01:00 +16°C° 0 mm 3 m/s 613 mmHg 87%
    02:00 +16°C° 0 mm 2 m/s 613 mmHg 87%
    03:00 +16°C° 0 mm 2 m/s 613 mmHg 88%
    04:00 +16°C° 0 mm 2 m/s 614 mmHg 87%
    05:00 +16°C° 0 mm 2 m/s 614 mmHg 86%
    06:00 +17°C° 0 mm 2 m/s 614 mmHg 85%
    07:00 +19°C° 0 mm 2 m/s 615 mmHg 79%
    08:00 +20°C° 0 mm 2 m/s 615 mmHg 73%
    09:00 +23°C° 0 mm 2 m/s 616 mmHg 68%
    10:00 +24°C° 0 mm 2 m/s 616 mmHg 65%
    11:00 +25°C° 0 mm 3 m/s 617 mmHg 62%
    12:00 +26°C° 0 mm 3 m/s 617 mmHg 60%
    13:00 +26°C° 0 mm 3 m/s 617 mmHg 60%
    14:00 +27°C° 0 mm 3 m/s 616 mmHg 60%
    15:00 +27°C° 0 mm 3 m/s 616 mmHg 60%
    16:00 +26°C° 0 mm 3 m/s 616 mmHg 65%
    17:00 +25°C° 0 mm 3 m/s 616 mmHg 70%
    18:00 +24°C° 0 mm 3 m/s 615 mmHg 75%
    19:00 +22°C° 0 mm 3 m/s 615 mmHg 79%
    20:00 +20°C° 0 mm 3 m/s 615 mmHg 83%
    21:00 +19°C° 0 mm 3 m/s 615 mmHg 86%
    22:00 +18°C° 0 mm 3 m/s 615 mmHg 85%
    23:00 +18°C° 0 mm 3 m/s 615 mmHg 84%

    21 Juillet, Dimanche

    Heure Température Précipitation Vent Pression Humidité
    00:00 +17°C° 0 mm 3 m/s 615 mmHg 83%
    01:00 +17°C° 0 mm 2 m/s 615 mmHg 82%
    02:00 +17°C° 0 mm 2 m/s 615 mmHg 82%
    03:00 +16°C° 0 mm 2 m/s 615 mmHg 82%
    04:00 +17°C° 0 mm 2 m/s 615 mmHg 81%
    05:00 +17°C° 0 mm 2 m/s 615 mmHg 80%
    06:00 +18°C° 0 mm 2 m/s 616 mmHg 79%
    07:00 +20°C° 0 mm 2 m/s 616 mmHg 73%
    08:00 +21°C° 0 mm 2 m/s 617 mmHg 67%
    09:00 +24°C° 0 mm 2 m/s 617 mmHg 61%
    10:00 +26°C° 0 mm 2 m/s 617 mmHg 59%
    11:00 +27°C° 0 mm 3 m/s 617 mmHg 57%
    12:00 +28°C° 0 mm 3 m/s 618 mmHg 55%
    13:00 +28°C° 0 mm 3 m/s 617 mmHg 56%
    14:00 +28°C° 0 mm 3 m/s 617 mmHg 57%
    15:00 +28°C° 0 mm 3 m/s 617 mmHg 58%
    16:00 +27°C° 0 mm 3 m/s 616 mmHg 63%
    17:00 +26°C° 0 mm 3 m/s 616 mmHg 68%
    18:00 +25°C° 0 mm 3 m/s 615 mmHg 73%
    19:00 +22°C° 0 mm 3 m/s 615 mmHg 76%
    20:00 +20°C° 0 mm 3 m/s 615 mmHg 78%
    21:00 +18°C° 0 mm 3 m/s 614 mmHg 81%
    22:00 +18°C° 0 mm 3 m/s 614 mmHg 79%
    23:00 +18°C° 0 mm 2 m/s 614 mmHg 77%
    Voir plus